Flag for USA

Past Weather in Fairfield Stadium (historical), West Virginia, USA — Yesterday and Last 2 Weeks

Now
45 °F

Sunny.


Feels Like: 42 °F
Forecast: 46 / 26 °F
Wind: 6 mph from East

Location: Tri-State Airport

Current Time: Dec 12, 2019 at 5:16:53 pm

Latest Report: Dec 12, 2019 at 3:51 pm


Visibility: 10 mi

Pressure: 30.40 "Hg

Humidity: 48%

Dew Point: 26 °F

Location of Fairfield Stadium (historical)Location

Past Weather in Fairfield Stadium (historical) — Graph

°F

Fairfield Stadium (historical) Temperature Yesterday

Maximum temperature yesterday: 39 °F (at 3:51 pm)
Minimum temperature yesterday: 23 °F (at 5:51 am)
Average temperature yesterday: 30 °F

High & Low Weather Summary for the Past Weeks

 TemperatureHumidityPressure
High62 °F (Dec 9, 9:51 pm)97% (Nov 30, 8:51 am)30.60 "Hg (Nov 30, 8:51 am)
Low21 °F (Dec 12, 7:51 am)33% (Dec 1, 12:51 pm)29.39 "Hg (Dec 1, 1:51 pm)
Average41 °F73%30.05 "Hg
* Reported Nov 27 3:51 pm — Dec 12 3:51 pm, Fairfield Stadium (historical). Weather by CustomWeather, © 2019

Note: Actual official high and low records may vary slightly from our data, if they occured in-between our weather recording intervals... More about our weather records

Fairfield Stadium (historical) Weather History for the Previous 24 Hours

Scroll right to see more
 ConditionsComfort  
Time TempWeatherWind HumidityBarometerVisibility
3:51 pm
Thu, Dec 12
45 °FSunny.6 mph48%30.40 "Hg10 mi
2:51 pm46 °FSunny.7 mph44%30.43 "Hg10 mi
1:51 pm46 °FSunny.3 mph44%30.47 "Hg10 mi
12:51 pm44 °FSunny.5 mph49%30.50 "Hg10 mi
11:51 am41 °FSunny.3 mph58%30.55 "Hg10 mi
10:51 am35 °FSunny.7 mph70%30.58 "Hg10 mi
9:51 am30 °FSunny.5 mph79%30.60 "Hg10 mi
8:51 am25 °FSunny.3 mph85%30.59 "Hg10 mi
7:51 am21 °FSunny.3 mph88%30.60 "Hg10 mi
6:51 am22 °FClear.No wind89%30.60 "Hg10 mi
5:51 am22 °FClear.No wind92%30.59 "Hg10 mi
4:51 am23 °FClear.No wind85%30.59 "Hg10 mi
3:51 am26 °FClear.3 mph77%30.59 "Hg10 mi
2:51 am26 °FClear.5 mph77%30.60 "Hg10 mi
1:51 am25 °FClear.No wind81%30.58 "Hg10 mi
12:51 am26 °FClear.3 mph77%30.57 "Hg10 mi
11:51 pm
Wed, Dec 11
27 °FClear.3 mph75%30.58 "Hg10 mi
10:51 pm26 °FClear.3 mph81%30.58 "Hg10 mi
9:51 pm29 °FClear.3 mph69%30.58 "Hg10 mi
8:51 pm29 °FClear.3 mph69%30.56 "Hg10 mi
7:51 pm31 °FClear.No wind57%30.55 "Hg10 mi
6:51 pm34 °FClear.No wind50%30.54 "Hg10 mi
5:51 pm35 °FClear.3 mph46%30.53 "Hg10 mi
Weather by CustomWeather, © 2019

See weather overview

Advertising